DECAYED
Showing default

FLOCK 1C 7, 40026 (Decayed)

Orbit data source: Space-Track

FLOCK 1C 7, 40026 was a payload satellite owned by Planet Labs (US) in LEO that was launched on Thu, 19 Jun 2014 UTC via a DNEPR launch vehicle from the Orenburg, Russia (OREN). Payload-class satellites include a variety of spacecraft equipped with specific instruments for various scientific and technological missions. These include communications satellites like Starlink; space stations such as the ISS; scientific satellites like the Hubble; Earth observation satellites from companies like Planet Labs, Umbra, and HawkEye 360; GPS; miniature CubeSats for education and research; and military/defense satellites.

Not visible in the next 10 days
Identifier
40026, 2014-033S
Orbit
Decayed
Country
Flag of USUS
Related business
Manufacturer
Planet Labs
Mission
Decayed Commercial Imaging
Bus & Motor
CUBESAT 3U, Unknown motor
Mass
4.25 kg wet, 4.25 kg dry
Launch date (UTC)
2014-06-19 (12 years ago)
Launch vehicle
DNEPR
Launch site
Orenburg, Russia (OREN)
Object type
Payload
Rocket body
Debris
Shape & HBR
Box + 2 Pan, 1.0 m
Radar Cross Section
0.108 m², Small (<0.1 m²)

Expand to show TLE details & history
Last TLE update: 1 year ago

TLE from 1 year ago
0 FLOCK 1C 7
1 40026U 14033S   25034.84760971  .11312359  29344-5  18927-2 0  9990
2 40026  98.0271  54.3274 0005971 252.5631 107.5010 16.33289633579562
Epoch: 2025-02-03T20:20Z
TLE epoch observation values (Epoch: 2025-02-03T20:20:33.478Z)
Latitude
-0.00009°
Longitude
-25.07345°
Altitude
188.118 km
Speed
7.793 km/s
True Right ascension
03h 37m 18s
True Declination
0° 00' 00"
Sunlit
Object was in daylight at epoch
Visualization orbit readout
Latitude
Unknown
Longitude
Unknown
Altitude
Unknown
Speed
Unknown
Apparent Right ascension
Unknown
Apparent Declination
Unknown
Sunlit
N/A
Visualization observer readout
Local Sidereal Time
21:19:00
Azimuth
Unknown
Elevation
Unknown
Doppler factor
Unknown
Orbital elements
Apogee altitude
184.476 km
Perigee altitude
176.644 km
Semi-major axis
6,558.697 km
Eccentricity
0.0006
Inclination
98.0271°
RAAN
54.3274°
Arg. of periapsis
252.5631°
True anomaly
107.56624°
Mean anomaly
107.501°
Eccentric anomaly
107.53362°
Mean motion
4.08617 °/min
Orbital period
88.1 mins
BSTAR
0.0018927
Loading maneuver chart data...
Computing Atmospheric mass density...
Loading historical data...
Loading historical data...
Loading historical data...
Loading historical data...
Loading historical data...
Loading historical data...
Loading historical data...

Documentation

Showing up to 5 results
|